Regional Weather Roundup
Issued by NWS Lake Charles, LA

Home | Current Version | Previous Version | Text Only | Print | Product List | Glossary On
Versions: 1 2 3 4 5 6 7 8 9 10 11 12 13 14 15 16 17 18 19 20 21 22 23 24 25 26 27 28 29 30 31 32 33 34 35 36 37 38 39 40 41 42 43 44 45 46 47 48 49 50
000
ASUS44 KLCH 200410
RWRLCH
RWRLCH
REGIONAL WEATHER ROUNDUP
NATIONAL WEATHER SERVICE LAKE CHARLES LA
1100 PM CDT FRI SEP 19 2014

Note: "fair" indicates few or no clouds below 12,000 feet with no
significant weather and/or obstructions to visibility.


ACROSS SOUTHEAST TEXAS

CITY           SKY/WX    TMP DP  RH WIND       PRES   REMARKS
BEAUMONT       CLEAR     78  74  87 E7        29.92S
BEAUMONT CITY    N/A     74  73  99 CALM      29.94S
ORANGE         CLEAR    N/A N/A N/A CALM      29.95S
JASPER         CLEAR     71  70  96 CALM      29.98S FOG
$$

ACROSS CENTRAL LOUISIANA

CITY           SKY/WX    TMP DP  RH WIND       PRES   REMARKS
LEESVILLE      CLEAR     75  70  84 E5        29.97R
FULLERTON        N/A     76  70  82 CALM      29.95R
ALEXANDRIA INT CLEAR     75  70  84 E3        29.95S
ESLER FIELD    MOCLDY    73  71  93 CALM      29.98R
DERIDDER         N/A     76  71  86 CALM      29.98S HAZE
OAKDALE        CLEAR     71  70  96 CALM      29.96S FOG
OPELOUSAS        N/A     74  70  87 CALM      29.96S
$$

ACROSS SOUTHWEST AND SOUTH CENTRAL LOUISIANA

CITY           SKY/WX    TMP DP  RH WIND       PRES   REMARKS
SULPHUR        CLEAR     76  74  94 E3        29.95S
LAKE CHARLES   CLEAR     76  72  87 E3        29.95R
CHENNAULT INT  CLEAR     74  72  91 CALM      29.95S
CAMERON PHI    CLEAR     81  72  74 E14       29.97R
DEQUINCY         N/A     74  71  90 CALM      29.96R
JENNINGS         N/A     74  69  86 E5        29.95S
LAFAYETTE      CLEAR     74  72  93 CALM      29.96S
NEW IBERIA     CLEAR     76  72  87 E7        29.96S
ABBEVILLE        N/A     72  71  96 CALM      29.95S
PATTERSON      CLEAR     73  72  94 E5          N/A
SALT POINT       N/A     77  72  84 CALM      29.94S
$$

SELECTED SITES ACROSS THE REGION

CITY           SKY/WX    TMP DP  RH WIND       PRES   REMARKS
HOUSTON BUSH   MOCLDY    74  73  97 CALM      29.93R
HOUSTON HOBBY  MOCLDY    77  75  93 E3        29.92R
GALVESTON      PTCLDY    81  75  82 E14       29.92S
COLLEGE STAT   PTCLDY    76  73  91 SE7       29.93S
CONROE         MOCLDY    73  72  96 CALM      29.95R
HUNTSVILLE     MOCLDY    75  71  87 CALM      29.95R
LUFKIN         CLEAR     76  71  85 CALM      29.95S
SHREVEPORT     CLEAR     76  69  79 E3        29.97R
MONROE         CLEAR     72  70  93 CALM      29.99S
NATCHEZ MS     MOCLDY    73  70  88 CALM      29.99F
BATON ROUGE    CLEAR     73  70  90 CALM      29.97S
N.O. INTL ARPT CLEAR     79  67  66 E7        29.97R
SLIDELL        CLEAR     72  69  90 CALM      29.98R
$$

MARINE REPORTS

STATION/POSITION TIME  TEMP    WIND        PRES    VSBY  WAVE
                       AIR SEA DIR/SP/G                  HT/PER
                 (UTC) (F)     (DEG/KT/KT) (MB)    (MI)  (FT/S)
BUOY 30 S HIGH I 0400   82 83  100/ 17/ 19 1012.2R         3/ 4
SEA RIM ST PARK  0400   81     120/ 12/ 14 1013.8R
PORT ARTHUR      0400      83  110/  6/  8 1013.5S
SABINE PASS N    0400   82 82  120/ 14/ 17 1013.4R
TEXAS POINT      0400   82 82  110/ 18/ 20 1013.5R
CALCASIEU PASS   0400   81 82  120/ 15/ 20 1014.8R
LK CHARLES BEACH 0400   78 84              1014.2R
MARSH ISLAND     NOT AVBL
FRESH WATER LOCK 0400   78 82   60/  9/ 11 1013.7F
AMERADA PASS     0400   75 83   70/  4/  6 1013.9S
$$


USA.gov is the U.S. government's official web portal to all federal, state and local government web resources and services.